Location: Madrid
(40.4000°N, 3.6830°W)
Time: 13:13:40
(UTC+02:00)

ISS - Pass Details

Date: 30 May 2020
Orbit: 417 x 419 km, 51.6° (Epoch: 31 May)

Event Time Altitude Azimuth Distance (km) Brightness Sun altitude
Rises 23:57:05 0° 307° (NW) 2,366 1.4 -20.3°
Reaches altitude 10° 23:59:11 10° 309° (NW) 1,500 0.1 -20.5°
Enters shadow 00:02:24 73° 1° (N) 440 -3.7 -20.8°
